Location: ??????????
(54.4061°N, 22.6114°E)
Time: 07:01:44
(UTC+00:00)

Daily predictions for brighter satellites

Satellite Brightness Start Highest point End
(mag) Time Altitude Azimuth Time Altitude Azimuth Time Altitude Azimuth
USA 238 DEB 4.0 16:59:25 10° NW 17:06:30 70° NE 17:13:55 10° ESE
USA 238 4.0 16:59:31 10° NW 17:06:37 70° NE 17:14:01 10° ESE
NOSS 3-1 (C) 4.0 17:04:23 10° WSW 17:10:08 61° NNW 17:17:02 10° NE
YAOGAN 1 2.9 17:05:59 10° S 17:10:18 72° WSW 17:14:40 10° NNW
H-2A R/B 2.0 17:06:08 10° SSE 17:11:05 72° ENE 17:16:12 10° NNW
Cosmos 1975 2.8 17:07:58 10° S 17:12:01 66° E 17:16:05 10° NNE
Cosmos 2297 Rocket 3.8 17:07:11 10° WSW 17:12:26 37° NW 17:17:42 10° NNE
SJ-11-01 4.3 17:08:51 10° SSE 17:13:35 79° ENE 17:18:18 10° NNW
Cosmos 1674 4.2 17:10:59 10° NNE 17:13:55 20° ENE 17:16:49 10° ESE
In-Cosmos 22 4.4 17:09:06 10° N 17:14:12 47° ENE 17:19:20 10° SE
Cosmos 1536 Rocket 4.4 17:12:08 10° N 17:16:10 33° ENE 17:20:12 10° SE
Cosmos 1437 3.0 17:13:32 10° NNW 17:16:33 67° WSW 17:19:30 10° S
CZ-4 R/B 2.4 17:12:43 10° S 17:16:51 53° W 17:20:58 10° NNW
Cosmos 1842 3.7 17:15:04 10° NNW 17:18:56 65° W 17:22:46 10° S
NOSS 2-3 (E) 4.4 17:15:25 10° WSW 17:19:54 64° NNW 17:25:31 10° NE
ISS -1.6 17:20:26 10° SSE 17:21:46 12° SE 17:23:05 10° ESE
CZ-2C R/B 3.6 17:17:50 10° NNE 17:22:29 27° E 17:27:10 10° SSE
NOSS 8 (F) 4.2 17:20:28 10° SW 17:23:31 57° SE 17:26:33 10° NE
ARGOS 3.1 17:18:26 10° SSE 17:23:46 72° ENE 17:29:09 10° NNW
Cosmos 1025 Rocket 3.3 17:22:17 10° N 17:26:34 49° ENE 17:30:49 10° SSE
Cosmos 990 Rocket 3.9 17:22:01 10° SSW 17:27:09 82° ESE 17:32:20 10° NNE
Meteor 2-11 Rocket 4.5 17:21:17 10° S 17:27:26 82° E 17:33:39 10° NNE
Cosmos 1782 Rocket 3.5 17:26:24 10° S 17:30:49 81° E 17:35:18 10° NNE
Cosmos 2233 Rocket 4.2 17:25:17 10° SSW 17:31:32 81° WNW 17:37:45 10° N
Cosmos 1707 2.6 17:27:47 10° N 17:31:40 71° ENE 17:35:29 10° SSE
Cosmos 1908 Rocket 4.2 17:28:38 10° SSW 17:32:57 60° WNW 17:37:20 10° N
NOSS 3-2 (A) 4.0 17:27:00 10° NW 17:34:14 89° NE 17:42:31 10° SE
Cosmos 2151 Rocket 4.4 17:31:42 10° SSE 17:35:36 31° E 17:39:33 10° NNE
Nadezhda 4 Rocket 4.1 17:30:11 10° N 17:36:12 54° ENE 17:42:11 10° SSE
NOSS 2-2 (C) 4.0 17:34:52 10° S 17:37:57 28° ESE 17:41:24 10° ENE
Ariane Rocket 3.0 17:35:00 10° SSE 17:40:00 64° ENE 17:45:03 10° NNW
CZ-2C R/B 3.8 17:35:04 10° S 17:40:18 59° W 17:45:52 10° NNW
Cosmos 494 Rocket 4.4 17:36:20 10° NNW 17:41:28 49° NE 17:46:04 13° SE
Cosmos 2263 Rocket 2.1 17:36:01 10° SSW 17:41:36 81° ESE 17:47:14 10° NE
CREW DRAGON DEMO-1 DEB 3.2 17:41:14 10° W 17:44:12 49° S 17:46:07 19° ESE
SJ-6B 2.8 17:41:08 10° SSE 17:44:45 53° ENE 17:48:28 10° N
USA 186 1.7 17:42:23 10° SSE 17:45:31 70° ENE 17:48:47 10° N
Cosmos 2034 Rocket 4.3 17:40:09 10° SSE 17:46:09 45° E 17:52:08 10° NNE
MOS 1 4.3 17:40:38 10° SSE 17:46:16 66° ENE 17:51:57 10° NNW
Meteor 2-9 Rocket 4.5 17:41:02 10° SSW 17:46:55 81° WNW 17:52:43 10° NNE
Cosmos 1844 Rocket 3.5 17:44:11 10° SSE 17:48:46 27° ESE 17:53:21 10° NE
Cosmos 1975 Rocket 4.1 17:45:52 10° NNW 17:50:04 47° W 17:54:12 10° SSW
Lacrosse 4 Rocket 3.3 17:48:27 10° NNW 17:51:16 18° NNE 17:54:01 10° ENE
FREGAT/IRIS 2.3 17:49:42 16° SSE 17:51:34 53° ENE 17:54:08 10° N
Cosmos 2227 4.4 17:49:05 10° SW 17:54:49 81° WNW 18:00:35 10° NNE
USA 234 4.3 17:50:42 10° ENE 17:55:39 22° SE 18:00:37 10° S
SPOT 3 Rocket 3.9 17:52:17 13° SE 17:56:33 46° ENE 18:01:29 10° N
Cosmos 1898 Rocket 3.9 17:52:23 10° SW 17:57:32 68° WNW 18:02:44 10° NNE
ATLAS CENTAUR R/B 3.3 17:55:25 10° WNW 17:58:37 24° NNW 18:01:42 10° NE
Cosmos 1833 Rocket 3.6 18:01:14 10° NNW 18:06:23 34° NE 18:09:44 19° E
SWAS 4.4 18:02:15 10° NNW 18:06:35 77° NE 18:09:25 21° SE
Resurs 01 Rocket 2.2 18:05:19 21° ESE 18:07:49 40° ENE 18:11:59 10° N
MetOp-A 4.1 18:02:31 10° SSE 18:07:52 82° ENE 18:13:16 10° NNW
NOSS 3-2 (C) 4.0 18:01:45 10° NW 18:09:00 89° SW 18:15:36 17° SE
Cosmos 2227 Rocket 4.4 18:05:40 10° W 18:10:13 24° NNW 18:14:47 10° NNE
Lacrosse 5 rocket 1.8 18:05:58 10° W 18:10:17 67° N 18:13:50 16° ENE
Cosmos 372 Rocket 3.9 18:06:46 10° SSW 18:11:58 69° ESE 18:17:11 10° NNE
MOS 1 Rocket 3.3 18:07:37 10° NNE 18:12:11 75° WNW 18:16:31 10° SSW
Meteor 1-15 Rocket 4.5 18:07:19 10° SSE 18:12:42 48° E 18:18:11 10° NNE
Sich 1 Rocket 4.0 18:08:58 10° SSW 18:13:28 67° WNW 18:18:01 10° N
DMSP B5D2-2 4.1 18:11:52 10° NNE 18:17:06 56° E 18:22:18 10° S
Meteor 1-12 Rocket 4.3 18:11:18 10° S 18:17:13 86° ESE 18:23:03 10° NNE
Cosmos 1634 Rocket 4.5 18:14:26 15° SSE 18:18:53 37° E 18:24:30 10° NNE
NOSS 3-1 (A) 4.4 18:14:52 10° W 18:20:40 48° NNW 18:27:36 10° NE
Cosmos 1626 2.7 18:17:11 10° N 18:20:41 37° ENE 18:21:30 33° ESE
OBJECT-B 0.7 18:19:21 28° SSE 18:20:56 76° ENE 18:24:11 10° N
Cosmos 2150 Rocket 4.1 18:16:43 10° S 18:21:58 56° ESE 18:27:19 10° NNE
SJ 16-02 3.7 18:18:30 10° WSW 18:22:10 25° NW 18:25:51 10° N
ARIANE 5 R/B 3.3 18:23:30 28° E 18:24:50 35° ENE 18:28:49 10° N
Cosmos 2285 Rocket 4.3 18:19:40 10° S 18:25:30 41° ESE 18:31:24 10° NE
Cosmos 1937 Rocket 4.2 18:20:34 10° SW 18:25:44 57° WNW 18:30:53 10° NNE
Cosmos 1125 Rocket 3.7 18:25:01 10° S 18:30:03 46° ESE 18:35:08 10° NE
Landsat 7 4.5 18:30:13 30° ESE 18:31:45 38° ENE 18:36:10 10° N
Okean 2 Rocket 3.5 18:27:32 10° SSW 18:32:00 67° WNW 18:36:29 10° N
Abrixas rocket 3.5 18:29:47 10° WSW 18:31:43 23° SSW 18:31:43 23° SSW
Cosmos 1464 Rocket 4.2 18:27:37 10° SSW 18:33:45 72° WNW 18:39:58 10° N
Okean 1 Rocket 3.2 18:31:11 22° SSE 18:33:50 52° E 18:38:12 10° NNE
NOSS 2-2 (E) 3.2 18:31:12 10° SW 18:34:48 90° NNW 18:39:12 10° NE
Cosmos 1092 Rocket 3.9 18:29:32 10° N 18:35:44 84° ENE 18:40:57 15° SSE
Meteor 2-13 Rocket 4.4 18:30:28 10° NNW 18:36:41 89° ENE 18:42:01 14° S
Cosmos 2195 Rocket 4.4 18:31:43 10° N 18:38:02 80° ENE 18:42:45 19° SSE
ERS-1 Rocket 4.1 18:37:27 25° E 18:38:39 28° ENE 18:42:53 10° N
Meteor 2-5 Rocket 3.6 18:33:29 10° NNW 18:39:08 82° ENE 18:42:57 22° SSE
Cosmos 1300 Rocket 4.2 18:36:18 10° SSW 18:40:39 57° WNW 18:45:03 10° N
ATLAS 2AS CENTAUR R/B 3.7 18:34:18 10° S 18:40:52 30° ESE 18:47:25 10° ENE
Cosmos 2026 Rocket 4.0 18:35:38 10° N 18:42:01 75° ENE 18:46:19 22° SSE
NOSS 2-2 (D) 3.1 18:39:53 10° SW 18:43:28 88° SE 18:47:46 10° NE
Resurs 1-3 3.7 18:41:32 22° S 18:44:20 74° WSW 18:48:45 10° NNW
CENTAUR R/B 3.3 18:38:24 10° NW 18:46:13 70° SW 18:51:58 24° SSE
Cosmos 2082 Rocket 3.0 18:43:09 10° NNW 18:48:25 39° NE 18:50:26 29° E
BREEZE-M R/B 4.3 18:42:05 10° WSW 18:48:45 33° S 18:48:53 32° S
Cosmos 1674 3.5 18:45:59 10° NNW 18:49:43 50° W 18:52:10 20° SSW
Cosmos 1805 3.1 18:48:59 38° S 18:50:23 75° E 18:54:19 10° NNE
H-2A R/B 4.4 18:47:18 10° SW 18:51:05 21° W 18:54:57 10° NW
ATLAS 3B R/B 2.7 18:46:49 10° NW 18:53:37 72° NE 18:56:56 34° ESE
Cosmos 1428 Rocket 4.4 18:47:27 10° N 18:53:48 84° E 18:57:36 26° SSE
Meteor 1-22 Rocket 4.4 18:52:11 28° SSE 18:55:07 54° E 19:01:01 10° NNE
Exosat Rocket 3.4 18:51:35 10° SSW 18:56:52 62° ESE 19:01:50 10° NE
ISS -1.8 18:54:46 10° SW 18:56:09 20° SSW 18:56:09 20° SSW
COSMOS 2406 3.1 18:53:23 10° NNW 18:59:06 76° NE 19:01:06 42° SE
CZ-2C R/B 3.5 18:54:57 10° NNE 18:59:25 66° ESE 19:00:45 43° SSE
Cosmos 1892 Rocket 3.5 18:55:32 10° N 18:59:52 66° ENE 19:00:29 58° ESE
Cosmos 1733 3.0 19:01:22 71° E 19:01:22 71° E 19:05:11 10° NNE
Cosmos 2279 Rocket 4.2 19:00:02 37° SE 19:01:52 48° E 19:07:51 10° NNE
Meteor 1-24 Rocket 3.6 18:56:42 10° NNW 19:02:12 87° WSW 19:04:56 32° S
CZ-2C R/B 3.1 18:57:44 10° N 19:03:11 65° WNW 19:08:42 10° SSW
SPOT 1/Viking Rocket 3.7 19:02:43 45° ESE 19:03:56 57° ENE 19:09:01 10° N
Cosmos 1269 Rocket 4.1 19:00:10 10° NNW 19:05:30 75° WSW 19:07:34 38° S
SL-14 R/B 3.2 19:03:23 10° NNW 19:07:20 82° WSW 19:07:48 67° S
CARTOSAT-1 4.2 19:09:13 39° ENE 19:09:13 39° ENE 19:13:06 10° N
Cosmos 909 Rocket 4.2 19:03:30 10° NW 19:10:21 63° NE 19:12:38 40° ESE
Spot 2 Rocket 3.4 19:10:54 53° SE 19:12:01 72° ENE 19:17:04 10° NNW
MetOp-B 4.2 19:20:19 42° S 19:22:12 76° WSW 19:27:36 10° NNW
Cosmos 2278 Rocket 3.8 19:26:08 19° ENE 19:26:08 19° ENE 19:28:00 10° NE
Cosmos 1844 3.6 19:17:43 10° SSW 19:23:26 89° SE 19:29:06 10° NNE
Terra 2.6 19:23:42 38° ENE 19:23:42 38° ENE 19:27:58 10° N
Cosmos 1766 3.7 19:23:37 49° SW 19:24:23 61° WNW 19:28:20 10° N
Cosmos 1470 4.4 19:27:59 25° NNE 19:27:59 25° NNE 19:29:47 10° NNE
Cosmos 2263 Rocket 4.1 19:21:17 10° W 19:26:09 30° NW 19:31:05 10° NNE
NOSS 2-2 (C) 4.1 19:24:39 10° WSW 19:28:15 50° NNW 19:32:14 12° NE
Okean 1-7 Rocket 3.5 19:26:03 10° NNW 19:30:40 87° WSW 19:30:52 81° SSW
Lacrosse 4 Rocket 1.8 19:26:45 10° NNW 19:30:19 52° NNE 19:30:19 52° NNE
Cosmos 1844 Rocket 2.9 19:26:38 10° SW 19:32:12 70° NW 19:37:50 10° NNE
ATLAS CENTAUR R/B 3.5 19:36:03 10° NW 19:38:36 17° N 19:39:48 15° NNE
Cosmos 2251 Rocket 3.4 19:33:39 10° NNW 19:39:03 71° ENE 19:39:24 69° E
USA 234 3.2 19:37:13 38° E 19:39:39 59° SE 19:46:06 10° SW
Cosmos 1602 Rocket 4.4 19:36:59 10° N 19:40:17 41° NNE 19:40:17 41° NNE
IGS 5A 4.0 19:44:06 55° W 19:44:06 55° W 19:48:07 10° NNW
Cosmos 2266 Rocket 3.8 19:38:11 10° N 19:44:16 72° ENE 19:45:00 65° ESE
Resurs 01 Rocket 3.1 19:42:53 26° SW 19:44:24 32° W 19:48:26 10° NNW
Cosmos 1340 Rocket 3.6 19:48:51 48° NNW 19:48:51 48° NNW 19:51:55 10° N
SPOT 5 2.9 19:49:29 78° E 19:49:33 78° ENE 19:54:54 10° NNW
Lacrosse 5 rocket 1.8 19:45:24 10° WNW 19:49:28 64° NNW 19:49:28 64° NNW
Cosmos 1833 Rocket 2.7 19:45:08 10° NW 19:50:46 68° WSW 19:51:25 62° SSW
OBJECT-B 4.0 19:53:15 10° W 19:53:45 10° W 19:54:16 10° WNW
Cosmos 1626 Rocket 4.0 19:50:41 10° N 19:54:15 57° N 19:54:15 57° N
Cosmos 1655 Rocket 4.0 19:49:08 10° NNW 19:55:25 80° W 19:56:43 58° S
Cosmos 1626 4.2 19:52:48 10° NW 19:55:45 23° W 19:56:03 23° W
ARIANE 5 R/B 3.8 20:01:02 35° WSW 20:01:19 35° W 20:05:20 10° NNW
Cosmos 1455 Rocket 3.8 20:02:24 51° N 20:02:24 51° N 20:05:46 10° N
NOSS 3-4 (A) 4.0 20:09:56 44° ENE 20:09:56 44° ENE 20:14:22 10° NE
NOSS 3-4 (C) 4.0 20:10:09 43° ENE 20:10:09 43° ENE 20:14:28 10° NE
Meteor 2-14 Rocket 4.4 20:04:33 10° N 20:10:43 71° ENE 20:10:45 71° ENE
Cosmos 1461 4.0 20:08:23 10° NW 20:12:25 47° N 20:12:25 47° N
ERS-1 Rocket 3.3 20:17:27 60° W 20:17:27 60° W 20:22:09 10° NNW
Cosmos 614 Rocket 4.3 20:13:43 10° NNW 20:18:08 61° N 20:18:08 61° N
ATLAS 2AS CENTAUR R/B 2.9 20:23:07 10° SW 20:31:07 84° SE 20:38:57 10° NE
Cosmos 2082 Rocket 2.6 20:27:16 10° NW 20:32:16 55° W 20:32:16 55° W
ATLAS 3B R/B 3.4 20:37:45 10° NW 20:44:04 41° WSW 20:44:10 41° WSW
Aureole 1 Rocket 4.5 20:43:30 10° NNW 20:48:07 42° NNE 20:48:07 42° NNE
COSMOS 2455 4.4 20:56:28 25° NE 20:56:28 25° NE 20:58:57 10° NE
NOSS 3-1 (C) 4.4 20:47:49 10° NW 20:54:25 52° NNE 20:56:56 38° ENE
SME Rocket 4.2 20:48:33 10° NNE 20:53:55 58° N 20:53:55 58° N
Terra 3.3 21:02:36 32° WNW 21:02:36 32° WNW 21:05:48 10° NNW
Cosmos 2278 Rocket 2.8 21:07:57 53° N 21:07:57 53° N 21:12:31 10° NNE
Lacrosse 4 Rocket 4.1 21:05:51 10° WNW 21:06:37 14° WNW 21:06:37 14° WNW
ATLAS CENTAUR R/B 4.2 21:15:16 10° NW 21:15:56 14° NNW 21:15:56 14° NNW
USA 234 3.7 21:16:21 10° ENE 21:24:43 52° W 21:29:29 10° W
Lacrosse 5 rocket 4.3 21:24:38 10° WNW 21:25:05 13° WNW 21:25:05 13° WNW
Cosmos 2227 Rocket 4.4 21:38:41 10° NNW 21:42:47 20° NNE 21:46:03 13° ENE
CZ-4C R/B 3.7 21:49:08 31° NE 21:49:08 31° NE 21:52:26 10° NE
USA 229 DEB 4.0 21:45:57 10° NW 21:53:01 66° NNE 21:53:19 65° NE
USA 229 4.0 21:46:02 10° NW 21:53:07 66° NNE 21:53:26 65° NE
NOSS 3-4 (A) 4.3 21:57:18 38° WNW 21:59:11 49° NNW 22:05:42 10° NE
NOSS 3-4 (C) 4.3 21:57:30 39° WNW 21:59:17 49° NNW 22:05:48 10° NE
NOSS 3-1 (A) 4.1 21:58:09 10° NW 22:05:05 65° NNE 22:06:02 60° ENE
Cosmos 1943 Rocket 3.5 22:16:55 34° NE 22:16:55 34° NE 22:20:01 10° NE
ATLAS 2AS CENTAUR R/B 3.7 22:15:05 10° W 22:22:49 51° NNW 22:30:15 10° NE
Cosmos 2297 Rocket 3.7 22:25:31 10° NNW 22:30:33 31° NE 22:31:23 30° NE
COSMOS 2455 3.7 22:39:35 47° NNW 22:39:35 47° NNW 22:45:02 10° NE
Cosmos 2369 Rocket 3.3 22:44:14 40° NE 22:44:14 40° NE 22:47:47 10° NNE
NOSS 3-1 (C) 4.2 22:38:42 10° NW 22:44:17 59° WNW 22:44:17 59° WNW
Cosmos 2278 Rocket 4.2 22:49:46 18° WNW 22:52:05 23° NNW 22:56:30 10° NNE
Cosmos 2074 Rocket 4.4 22:46:41 10° N 22:51:40 58° N 22:51:40 58° N
SL-16 R/B 3.3 22:58:38 44° ENE 22:58:58 44° ENE 23:04:46 10° N
USA 234 3.4 22:59:18 10° E 23:12:13 11° WNW 23:12:22 10° WNW
Nadezhda 1 Rocket 4.4 23:22:51 58° NE 23:22:51 58° NE 23:27:54 10° NNE
Cosmos 2227 Rocket 2.9 23:22:39 10° NNW 23:27:49 50° NE 23:27:49 50° NE
ADEOS II 4.3 23:26:47 10° NE 23:29:57 16° E 23:30:32 16° E
CZ-4C R/B 3.2 23:34:18 42° NW 23:35:09 44° NNW 23:41:41 10° NE
Cosmos 2219 3.9 23:37:41 10° NNW 23:41:53 49° NNW 23:41:53 49° NNW
SL-8 Rocket 4.1 23:45:42 10° N 23:51:58 69° ENE 23:51:58 69° ENE
